owner,sensor,date,latitude,longitude,air_temperature,qcFlag 
LOOP,urn:ioos:station:wmo:lopl1:1,2011-11-01T00:08:00Z,28.8850,-90.0250,19.3,11111222 
LOOP,urn:ioos:station:wmo:lopl1:1,2011-11-01T00:23:00Z,28.8850,-90.0250,19.3,11111222 
LOOP,urn:ioos:station:wmo:lopl1:1,2011-11-01T00:38:00Z,28.8850,-90.0250,19.3,11111222 
LOOP,urn:ioos:station:wmo:lopl1:1,2011-11-01T00:53:00Z,28.8850,-90.0250,19.5,11111222 
LOOP,urn:ioos:station:wmo:lopl1:1,2011-11-01T01:08:00Z,28.8850,-90.0250,19.6,11111222 
LOOP,urn:ioos:station:wmo:lopl1:1,2011-11-01T01:23:00Z,28.8850,-90.0250,19.7,11111222 
LOOP,urn:ioos:station:wmo:lopl1:1,2011-11-01T01:38:00Z,28.8850,-90.0250,19.7,11111222 
LOOP,urn:ioos:station:wmo:lopl1:1,2011-11-01T01:53:00Z,28.8850,-90.0250,19.7,11111222 
LOOP,urn:ioos:station:wmo:lopl1:1,2011-11-01T02:08:00Z,28.8850,-90.0250,19.8,11111222 
LOOP,urn:ioos:station:wmo:lopl1:1,2011-11-01T02:23:00Z,28.8850,-90.0250,19.7,11111222 
LOOP,urn:ioos:station:wmo:lopl1:1,2011-11-01T02:38:00Z,28.8850,-90.0250,19.9,11111222 
LOOP,urn:ioos:station:wmo:lopl1:1,2011-11-01T02:53:00Z,28.8850,-90.0250,19.9,11111222 
LOOP,urn:ioos:station:wmo:lopl1:1,2011-11-01T03:08:00Z,28.8850,-90.0250,19.8,11111222 
LOOP,urn:ioos:station:wmo:lopl1:1,2011-11-01T03:23:00Z,28.8850,-90.0250,19.9,11111222 
LOOP,urn:ioos:station:wmo:lopl1:1,2011-11-01T03:38:00Z,28.8850,-90.0250,19.9,11111222 
LOOP,urn:ioos:station:wmo:lopl1:1,2011-11-01T03:53:00Z,28.8850,-90.0250,19.8,11111222 
LOOP,urn:ioos:station:wmo:lopl1:1,2011-11-01T04:13:00Z,28.8850,-90.0250,19.9,11111222 
LOOP,urn:ioos:station:wmo:lopl1:1,2011-11-01T04:28:00Z,28.8850,-90.0250,19.9,11111222 
LOOP,urn:ioos:station:wmo:lopl1:1,2011-11-01T04:43:00Z,28.8850,-90.0250,19.9,11111222 
LOOP,urn:ioos:station:wmo:lopl1:1,2011-11-01T04:58:00Z,28.8850,-90.0250,20.1,11111222 
LOOP,urn:ioos:station:wmo:lopl1:1,2011-11-01T05:13:00Z,28.8850,-90.0250,20.0,11111222 
LOOP,urn:ioos:station:wmo:lopl1:1,2011-11-01T05:28:00Z,28.8850,-90.0250,20.1,11111222 
LOOP,urn:ioos:station:wmo:lopl1:1,2011-11-01T05:43:00Z,28.8850,-90.0250,20.1,11111222 
LOOP,urn:ioos:station:wmo:lopl1:1,2011-11-01T05:58:00Z,28.8850,-90.0250,20.1,11111222 
LOOP,urn:ioos:station:wmo:lopl1:1,2011-11-01T06:13:00Z,28.8850,-90.0250,20.0,11111222 
LOOP,urn:ioos:station:wmo:lopl1:1,2011-11-01T06:28:00Z,28.8850,-90.0250,20.1,11111222 
LOOP,urn:ioos:station:wmo:lopl1:1,2011-11-01T06:43:00Z,28.8850,-90.0250,20.1,11111222 
LOOP,urn:ioos:station:wmo:lopl1:1,2011-11-01T06:58:00Z,28.8850,-90.0250,20.0,11111222 
LOOP,urn:ioos:station:wmo:lopl1:1,2011-11-01T07:13:00Z,28.8850,-90.0250,20.1,11111222 
LOOP,urn:ioos:station:wmo:lopl1:1,2011-11-01T07:28:00Z,28.8850,-90.0250,20.0,11111222 
LOOP,urn:ioos:station:wmo:lopl1:1,2011-11-01T07:43:00Z,28.8850,-90.0250,20.1,11111222 
LOOP,urn:ioos:station:wmo:lopl1:1,2011-11-01T07:58:00Z,28.8850,-90.0250,20.1,11111222 
LOOP,urn:ioos:station:wmo:lopl1:1,2011-11-01T08:13:00Z,28.8850,-90.0250,20.2,11111222 
LOOP,urn:ioos:station:wmo:lopl1:1,2011-11-01T08:28:00Z,28.8850,-90.0250,20.1,11111222 
LOOP,urn:ioos:station:wmo:lopl1:1,2011-11-01T08:43:00Z,28.8850,-90.0250,20.1,11111222 
LOOP,urn:ioos:station:wmo:lopl1:1,2011-11-01T08:58:00Z,28.8850,-90.0250,20.0,11111222 
LOOP,urn:ioos:station:wmo:lopl1:1,2011-11-01T09:13:00Z,28.8850,-90.0250,20.0,11111222 
LOOP,urn:ioos:station:wmo:lopl1:1,2011-11-01T09:28:00Z,28.8850,-90.0250,20.0,11111222 
LOOP,urn:ioos:station:wmo:lopl1:1,2011-11-01T09:43:00Z,28.8850,-90.0250,19.9,11111222 
LOOP,urn:ioos:station:wmo:lopl1:1,2011-11-01T09:58:00Z,28.8850,-90.0250,19.9,11111222 
LOOP,urn:ioos:station:wmo:lopl1:1,2011-11-01T10:13:00Z,28.8850,-90.0250,19.9,11111222 
LOOP,urn:ioos:station:wmo:lopl1:1,2011-11-01T10:28:00Z,28.8850,-90.0250,20.0,11111222 
LOOP,urn:ioos:station:wmo:lopl1:1,2011-11-01T10:43:00Z,28.8850,-90.0250,20.1,11111222 
LOOP,urn:ioos:station:wmo:lopl1:1,2011-11-01T10:58:00Z,28.8850,-90.0250,20.2,11111222 
LOOP,urn:ioos:station:wmo:lopl1:1,2011-11-01T11:13:00Z,28.8850,-90.0250,20.2,11111222 
LOOP,urn:ioos:station:wmo:lopl1:1,2011-11-01T11:28:00Z,28.8850,-90.0250,20.1,11111222 
LOOP,urn:ioos:station:wmo:lopl1:1,2011-11-01T11:43:00Z,28.8850,-90.0250,20.3,11111222 
LOOP,urn:ioos:station:wmo:lopl1:1,2011-11-01T11:58:00Z,28.8850,-90.0250,20.1,11111222 
LOOP,urn:ioos:station:wmo:lopl1:1,2011-11-01T12:13:00Z,28.8850,-90.0250,20.2,11111222 
LOOP,urn:ioos:station:wmo:lopl1:1,2011-11-01T12:28:00Z,28.8850,-90.0250,20.1,11111222 
LOOP,urn:ioos:station:wmo:lopl1:1,2011-11-01T12:43:00Z,28.8850,-90.0250,20.3,11111222 
LOOP,urn:ioos:station:wmo:lopl1:1,2011-11-01T12:58:00Z,28.8850,-90.0250,20.2,11111222 
LOOP,urn:ioos:station:wmo:lopl1:1,2011-11-01T13:13:00Z,28.8850,-90.0250,20.3,11111222 
LOOP,urn:ioos:station:wmo:lopl1:1,2011-11-01T13:28:00Z,28.8850,-90.0250,20.4,11111222 
LOOP,urn:ioos:station:wmo:lopl1:1,2011-11-01T13:48:00Z,28.8850,-90.0250,20.5,11111222 
LOOP,urn:ioos:station:wmo:lopl1:1,2011-11-01T14:03:00Z,28.8850,-90.0250,20.5,11111222 
LOOP,urn:ioos:station:wmo:lopl1:1,2011-11-01T14:18:00Z,28.8850,-90.0250,20.5,11111222 
LOOP,urn:ioos:station:wmo:lopl1:1,2011-11-01T14:33:00Z,28.8850,-90.0250,20.6,11111222 
LOOP,urn:ioos:station:wmo:lopl1:1,2011-11-01T14:48:00Z,28.8850,-90.0250,20.6,11111222 
LOOP,urn:ioos:station:wmo:lopl1:1,2011-11-01T15:03:00Z,28.8850,-90.0250,20.6,11111222 
LOOP,urn:ioos:station:wmo:lopl1:1,2011-11-01T15:18:00Z,28.8850,-90.0250,20.7,11111222 
LOOP,urn:ioos:station:wmo:lopl1:1,2011-11-01T15:33:00Z,28.8850,-90.0250,20.7,11111222 
LOOP,urn:ioos:station:wmo:lopl1:1,2011-11-01T15:48:00Z,28.8850,-90.0250,20.7,11111222 
LOOP,urn:ioos:station:wmo:lopl1:1,2011-11-01T16:03:00Z,28.8850,-90.0250,20.9,11111222 
LOOP,urn:ioos:station:wmo:lopl1:1,2011-11-01T16:18:00Z,28.8850,-90.0250,20.9,11111222 
LOOP,urn:ioos:station:wmo:lopl1:1,2011-11-01T16:33:00Z,28.8850,-90.0250,21.0,11111222 
LOOP,urn:ioos:station:wmo:lopl1:1,2011-11-01T16:48:00Z,28.8850,-90.0250,21.1,11111222 
LOOP,urn:ioos:station:wmo:lopl1:1,2011-11-01T17:03:00Z,28.8850,-90.0250,21.1,11111222 
LOOP,urn:ioos:station:wmo:lopl1:1,2011-11-01T17:18:00Z,28.8850,-90.0250,21.2,11111222 
LOOP,urn:ioos:station:wmo:lopl1:1,2011-11-01T17:33:00Z,28.8850,-90.0250,21.2,11111222 
LOOP,urn:ioos:station:wmo:lopl1:1,2011-11-01T17:48:00Z,28.8850,-90.0250,21.3,11111222 
LOOP,urn:ioos:station:wmo:lopl1:1,2011-11-01T18:03:00Z,28.8850,-90.0250,21.4,11111222 
LOOP,urn:ioos:station:wmo:lopl1:1,2011-11-01T18:18:00Z,28.8850,-90.0250,21.5,11111222 
LOOP,urn:ioos:station:wmo:lopl1:1,2011-11-01T18:33:00Z,28.8850,-90.0250,21.6,11111222 
LOOP,urn:ioos:station:wmo:lopl1:1,2011-11-01T18:48:00Z,28.8850,-90.0250,21.8,11111222 
LOOP,urn:ioos:station:wmo:lopl1:1,2011-11-01T19:03:00Z,28.8850,-90.0250,22.0,11111222 
LOOP,urn:ioos:station:wmo:lopl1:1,2011-11-01T19:18:00Z,28.8850,-90.0250,22.1,11111222 
LOOP,urn:ioos:station:wmo:lopl1:1,2011-11-01T19:33:00Z,28.8850,-90.0250,22.0,11111222 
LOOP,urn:ioos:station:wmo:lopl1:1,2011-11-01T19:48:00Z,28.8850,-90.0250,22.0,11111222 
LOOP,urn:ioos:station:wmo:lopl1:1,2011-11-01T20:03:00Z,28.8850,-90.0250,22.0,11111222 
LOOP,urn:ioos:station:wmo:lopl1:1,2011-11-01T20:18:00Z,28.8850,-90.0250,22.0,11111222 
LOOP,urn:ioos:station:wmo:lopl1:1,2011-11-01T20:33:00Z,28.8850,-90.0250,22.0,11111222 
LOOP,urn:ioos:station:wmo:lopl1:1,2011-11-01T20:48:00Z,28.8850,-90.0250,22.0,11111222 
LOOP,urn:ioos:station:wmo:lopl1:1,2011-11-01T21:03:00Z,28.8850,-90.0250,22.0,11111222 
LOOP,urn:ioos:station:wmo:lopl1:1,2011-11-01T21:18:00Z,28.8850,-90.0250,22.0,11111222 
LOOP,urn:ioos:station:wmo:lopl1:1,2011-11-01T21:33:00Z,28.8850,-90.0250,21.9,11111222 
LOOP,urn:ioos:station:wmo:lopl1:1,2011-11-01T21:48:00Z,28.8850,-90.0250,21.9,11111222 
LOOP,urn:ioos:station:wmo:lopl1:1,2011-11-01T22:03:00Z,28.8850,-90.0250,21.9,11111222 
LOOP,urn:ioos:station:wmo:lopl1:1,2011-11-01T22:18:00Z,28.8850,-90.0250,21.8,11111222 
LOOP,urn:ioos:station:wmo:lopl1:1,2011-11-01T22:33:00Z,28.8850,-90.0250,21.6,11111222 
LOOP,urn:ioos:station:wmo:lopl1:1,2011-11-01T22:48:00Z,28.8850,-90.0250,21.6,11111222 
LOOP,urn:ioos:station:wmo:lopl1:1,2011-11-01T23:03:00Z,28.8850,-90.0250,21.5,11111222 
LOOP,urn:ioos:station:wmo:lopl1:1,2011-11-01T23:18:00Z,28.8850,-90.0250,21.5,11111222 
LOOP,urn:ioos:station:wmo:lopl1:1,2011-11-01T23:33:00Z,28.8850,-90.0250,21.5,11111222 
LOOP,urn:ioos:station:wmo:lopl1:1,2011-11-01T23:53:00Z,28.8850,-90.0250,21.5,11111222 
LOOP,urn:ioos:station:wmo:lopl1:1,2011-11-02T00:08:00Z,28.8850,-90.0250,21.6,11111222 
LOOP,urn:ioos:station:wmo:lopl1:1,2011-11-02T00:23:00Z,28.8850,-90.0250,21.7,11111222 
LOOP,urn:ioos:station:wmo:lopl1:1,2011-11-02T00:38:00Z,28.8850,-90.0250,21.8,11111222 
LOOP,urn:ioos:station:wmo:lopl1:1,2011-11-02T00:53:00Z,28.8850,-90.0250,21.7,11111222 
LOOP,urn:ioos:station:wmo:lopl1:1,2011-11-02T01:08:00Z,28.8850,-90.0250,21.6,11111222 
LOOP,urn:ioos:station:wmo:lopl1:1,2011-11-02T01:23:00Z,28.8850,-90.0250,21.6,11111222 
LOOP,urn:ioos:station:wmo:lopl1:1,2011-11-02T01:38:00Z,28.8850,-90.0250,21.5,11111222 
LOOP,urn:ioos:station:wmo:lopl1:1,2011-11-02T01:53:00Z,28.8850,-90.0250,21.5,11111222 
LOOP,urn:ioos:station:wmo:lopl1:1,2011-11-02T02:08:00Z,28.8850,-90.0250,21.5,11111222 
LOOP,urn:ioos:station:wmo:lopl1:1,2011-11-02T02:23:00Z,28.8850,-90.0250,21.5,11111222 
LOOP,urn:ioos:station:wmo:lopl1:1,2011-11-02T02:38:00Z,28.8850,-90.0250,21.5,11111222 
LOOP,urn:ioos:station:wmo:lopl1:1,2011-11-02T02:53:00Z,28.8850,-90.0250,21.5,11111222 
LOOP,urn:ioos:station:wmo:lopl1:1,2011-11-02T03:08:00Z,28.8850,-90.0250,21.5,11111222 
LOOP,urn:ioos:station:wmo:lopl1:1,2011-11-02T03:23:00Z,28.8850,-90.0250,21.5,11111222 
LOOP,urn:ioos:station:wmo:lopl1:1,2011-11-02T03:38:00Z,28.8850,-90.0250,21.5,11111222 
LOOP,urn:ioos:station:wmo:lopl1:1,2011-11-02T03:53:00Z,28.8850,-90.0250,21.5,11111222 
LOOP,urn:ioos:station:wmo:lopl1:1,2011-11-02T04:08:00Z,28.8850,-90.0250,21.6,11111222 
LOOP,urn:ioos:station:wmo:lopl1:1,2011-11-02T04:23:00Z,28.8850,-90.0250,21.6,11111222 
LOOP,urn:ioos:station:wmo:lopl1:1,2011-11-02T04:38:00Z,28.8850,-90.0250,21.6,11111222 
LOOP,urn:ioos:station:wmo:lopl1:1,2011-11-02T04:53:00Z,28.8850,-90.0250,21.7,11111222 
LOOP,urn:ioos:station:wmo:lopl1:1,2011-11-02T05:08:00Z,28.8850,-90.0250,21.7,11111222 
LOOP,urn:ioos:station:wmo:lopl1:1,2011-11-02T05:23:00Z,28.8850,-90.0250,21.7,11111222 
LOOP,urn:ioos:station:wmo:lopl1:1,2011-11-02T05:38:00Z,28.8850,-90.0250,21.7,11111222 
LOOP,urn:ioos:station:wmo:lopl1:1,2011-11-02T05:53:00Z,28.8850,-90.0250,21.8,11111222 
LOOP,urn:ioos:station:wmo:lopl1:1,2011-11-02T06:08:00Z,28.8850,-90.0250,21.6,11111222 
LOOP,urn:ioos:station:wmo:lopl1:1,2011-11-02T06:23:00Z,28.8850,-90.0250,21.7,11111222 
LOOP,urn:ioos:station:wmo:lopl1:1,2011-11-02T06:38:00Z,28.8850,-90.0250,21.9,11111222 
LOOP,urn:ioos:station:wmo:lopl1:1,2011-11-02T06:53:00Z,28.8850,-90.0250,22.1,11111222 
LOOP,urn:ioos:station:wmo:lopl1:1,2011-11-02T07:08:00Z,28.8850,-90.0250,22.6,11111222 
LOOP,urn:ioos:station:wmo:lopl1:1,2011-11-02T07:23:00Z,28.8850,-90.0250,22.6,11111222 
LOOP,urn:ioos:station:wmo:lopl1:1,2011-11-02T07:38:00Z,28.8850,-90.0250,22.6,11111222 
LOOP,urn:ioos:station:wmo:lopl1:1,2011-11-02T07:53:00Z,28.8850,-90.0250,22.5,11111222 
LOOP,urn:ioos:station:wmo:lopl1:1,2011-11-02T08:08:00Z,28.8850,-90.0250,22.4,11111222 
LOOP,urn:ioos:station:wmo:lopl1:1,2011-11-02T08:23:00Z,28.8850,-90.0250,22.3,11111222 
LOOP,urn:ioos:station:wmo:lopl1:1,2011-11-02T08:38:00Z,28.8850,-90.0250,22.3,11111222 
LOOP,urn:ioos:station:wmo:lopl1:1,2011-11-02T08:53:00Z,28.8850,-90.0250,22.2,11111222 
LOOP,urn:ioos:station:wmo:lopl1:1,2011-11-02T09:08:00Z,28.8850,-90.0250,22.2,11111222 
LOOP,urn:ioos:station:wmo:lopl1:1,2011-11-02T09:23:00Z,28.8850,-90.0250,22.2,11111222 
LOOP,urn:ioos:station:wmo:lopl1:1,2011-11-02T09:38:00Z,28.8850,-90.0250,22.2,11111222 
LOOP,urn:ioos:station:wmo:lopl1:1,2011-11-02T09:58:00Z,28.8850,-90.0250,22.2,11111222 
LOOP,urn:ioos:station:wmo:lopl1:1,2011-11-02T10:13:00Z,28.8850,-90.0250,22.3,11111222 
LOOP,urn:ioos:station:wmo:lopl1:1,2011-11-02T10:28:00Z,28.8850,-90.0250,22.3,11111222 
LOOP,urn:ioos:station:wmo:lopl1:1,2011-11-02T10:43:00Z,28.8850,-90.0250,22.3,11111222 
LOOP,urn:ioos:station:wmo:lopl1:1,2011-11-02T10:58:00Z,28.8850,-90.0250,22.3,11111222 
LOOP,urn:ioos:station:wmo:lopl1:1,2011-11-02T11:13:00Z,28.8850,-90.0250,22.2,11111222 
LOOP,urn:ioos:station:wmo:lopl1:1,2011-11-02T11:28:00Z,28.8850,-90.0250,22.2,11111222 
LOOP,urn:ioos:station:wmo:lopl1:1,2011-11-02T11:43:00Z,28.8850,-90.0250,22.1,11111222 
LOOP,urn:ioos:station:wmo:lopl1:1,2011-11-02T11:58:00Z,28.8850,-90.0250,22.1,11111222 
LOOP,urn:ioos:station:wmo:lopl1:1,2011-11-02T12:13:00Z,28.8850,-90.0250,22.2,11111222 
LOOP,urn:ioos:station:wmo:lopl1:1,2011-11-02T12:28:00Z,28.8850,-90.0250,22.1,11111222 
LOOP,urn:ioos:station:wmo:lopl1:1,2011-11-02T12:43:00Z,28.8850,-90.0250,22.1,11111222 
LOOP,urn:ioos:station:wmo:lopl1:1,2011-11-02T12:58:00Z,28.8850,-90.0250,22.2,11111222 
LOOP,urn:ioos:station:wmo:lopl1:1,2011-11-02T13:13:00Z,28.8850,-90.0250,22.3,11111222 
LOOP,urn:ioos:station:wmo:lopl1:1,2011-11-02T13:28:00Z,28.8850,-90.0250,22.3,11111222 
LOOP,urn:ioos:station:wmo:lopl1:1,2011-11-02T13:43:00Z,28.8850,-90.0250,22.4,11111222 
LOOP,urn:ioos:station:wmo:lopl1:1,2011-11-02T13:58:00Z,28.8850,-90.0250,22.4,11111222 
LOOP,urn:ioos:station:wmo:lopl1:1,2011-11-02T14:13:00Z,28.8850,-90.0250,22.6,11111222 
LOOP,urn:ioos:station:wmo:lopl1:1,2011-11-02T14:28:00Z,28.8850,-90.0250,22.5,11111222 
LOOP,urn:ioos:station:wmo:lopl1:1,2011-11-02T14:43:00Z,28.8850,-90.0250,22.6,11111222 
LOOP,urn:ioos:station:wmo:lopl1:1,2011-11-02T14:58:00Z,28.8850,-90.0250,22.6,11111222 
LOOP,urn:ioos:station:wmo:lopl1:1,2011-11-02T15:13:00Z,28.8850,-90.0250,22.6,11111222 
LOOP,urn:ioos:station:wmo:lopl1:1,2011-11-02T15:28:00Z,28.8850,-90.0250,22.7,11111222 
LOOP,urn:ioos:station:wmo:lopl1:1,2011-11-02T15:43:00Z,28.8850,-90.0250,22.8,11111222 
LOOP,urn:ioos:station:wmo:lopl1:1,2011-11-02T15:58:00Z,28.8850,-90.0250,22.9,11111222 
LOOP,urn:ioos:station:wmo:lopl1:1,2011-11-02T16:13:00Z,28.8850,-90.0250,22.8,11111222 
LOOP,urn:ioos:station:wmo:lopl1:1,2011-11-02T16:28:00Z,28.8850,-90.0250,22.9,11111222 
LOOP,urn:ioos:station:wmo:lopl1:1,2011-11-02T16:43:00Z,28.8850,-90.0250,22.8,11111222 
LOOP,urn:ioos:station:wmo:lopl1:1,2011-11-02T16:58:00Z,28.8850,-90.0250,22.8,11111222 
LOOP,urn:ioos:station:wmo:lopl1:1,2011-11-02T17:13:00Z,28.8850,-90.0250,22.8,11111222 
LOOP,urn:ioos:station:wmo:lopl1:1,2011-11-02T17:28:00Z,28.8850,-90.0250,22.7,11111222 
LOOP,urn:ioos:station:wmo:lopl1:1,2011-11-02T17:43:00Z,28.8850,-90.0250,22.6,11111222 
LOOP,urn:ioos:station:wmo:lopl1:1,2011-11-02T17:58:00Z,28.8850,-90.0250,22.6,11111222 
LOOP,urn:ioos:station:wmo:lopl1:1,2011-11-02T18:13:00Z,28.8850,-90.0250,22.4,11111222 
LOOP,urn:ioos:station:wmo:lopl1:1,2011-11-02T18:28:00Z,28.8850,-90.0250,22.3,11111222 
LOOP,urn:ioos:station:wmo:lopl1:1,2011-11-02T18:43:00Z,28.8850,-90.0250,22.3,11111222 
LOOP,urn:ioos:station:wmo:lopl1:1,2011-11-02T18:58:00Z,28.8850,-90.0250,22.4,11111222 
LOOP,urn:ioos:station:wmo:lopl1:1,2011-11-02T19:13:00Z,28.8850,-90.0250,22.4,11111222 
LOOP,urn:ioos:station:wmo:lopl1:1,2011-11-02T19:28:00Z,28.8850,-90.0250,22.4,11111222 
LOOP,urn:ioos:station:wmo:lopl1:1,2011-11-02T19:43:00Z,28.8850,-90.0250,22.4,11111222 
LOOP,urn:ioos:station:wmo:lopl1:1,2011-11-02T19:58:00Z,28.8850,-90.0250,22.4,11111222 
LOOP,urn:ioos:station:wmo:lopl1:1,2011-11-02T20:13:00Z,28.8850,-90.0250,22.5,11111222 
LOOP,urn:ioos:station:wmo:lopl1:1,2011-11-02T20:28:00Z,28.8850,-90.0250,22.5,11111222 
LOOP,urn:ioos:station:wmo:lopl1:1,2011-11-02T20:43:00Z,28.8850,-90.0250,22.6,11111222 
LOOP,urn:ioos:station:wmo:lopl1:1,2011-11-02T21:03:00Z,28.8850,-90.0250,22.7,11111222 
LOOP,urn:ioos:station:wmo:lopl1:1,2011-11-02T21:18:00Z,28.8850,-90.0250,22.7,11111222 
LOOP,urn:ioos:station:wmo:lopl1:1,2011-11-02T21:33:00Z,28.8850,-90.0250,22.5,11111222 
LOOP,urn:ioos:station:wmo:lopl1:1,2011-11-02T21:48:00Z,28.8850,-90.0250,22.4,11111222 
LOOP,urn:ioos:station:wmo:lopl1:1,2011-11-02T22:03:00Z,28.8850,-90.0250,22.4,11111222 
LOOP,urn:ioos:station:wmo:lopl1:1,2011-11-02T22:18:00Z,28.8850,-90.0250,22.5,11111222 
LOOP,urn:ioos:station:wmo:lopl1:1,2011-11-02T22:33:00Z,28.8850,-90.0250,22.5,11111222 
LOOP,urn:ioos:station:wmo:lopl1:1,2011-11-02T22:48:00Z,28.8850,-90.0250,22.6,11111222 
LOOP,urn:ioos:station:wmo:lopl1:1,2011-11-02T23:03:00Z,28.8850,-90.0250,22.5,11111222 
LOOP,urn:ioos:station:wmo:lopl1:1,2011-11-02T23:18:00Z,28.8850,-90.0250,22.6,11111222 
LOOP,urn:ioos:station:wmo:lopl1:1,2011-11-02T23:33:00Z,28.8850,-90.0250,22.5,11111222 
LOOP,urn:ioos:station:wmo:lopl1:1,2011-11-02T23:48:00Z,28.8850,-90.0250,22.6,11111222 
LOOP,urn:ioos:station:wmo:lopl1:1,2011-11-03T00:03:00Z,28.8850,-90.0250,22.5,11111222 
LOOP,urn:ioos:station:wmo:lopl1:1,2011-11-03T00:18:00Z,28.8850,-90.0250,22.5,11111222 
LOOP,urn:ioos:station:wmo:lopl1:1,2011-11-03T00:33:00Z,28.8850,-90.0250,22.5,11111222 
LOOP,urn:ioos:station:wmo:lopl1:1,2011-11-03T00:48:00Z,28.8850,-90.0250,22.6,11111222 
LOOP,urn:ioos:station:wmo:lopl1:1,2011-11-03T01:03:00Z,28.8850,-90.0250,22.7,11111222 
LOOP,urn:ioos:station:wmo:lopl1:1,2011-11-03T01:18:00Z,28.8850,-90.0250,22.6,11111222 
LOOP,urn:ioos:station:wmo:lopl1:1,2011-11-03T01:33:00Z,28.8850,-90.0250,22.8,11111222 
LOOP,urn:ioos:station:wmo:lopl1:1,2011-11-03T01:48:00Z,28.8850,-90.0250,23.1,11111222 
LOOP,urn:ioos:station:wmo:lopl1:1,2011-11-03T02:03:00Z,28.8850,-90.0250,23.1,11111222 
LOOP,urn:ioos:station:wmo:lopl1:1,2011-11-03T02:18:00Z,28.8850,-90.0250,23.3,11111222 
LOOP,urn:ioos:station:wmo:lopl1:1,2011-11-03T02:33:00Z,28.8850,-90.0250,23.3,11111222 
LOOP,urn:ioos:station:wmo:lopl1:1,2011-11-03T02:48:00Z,28.8850,-90.0250,23.4,11111222 
LOOP,urn:ioos:station:wmo:lopl1:1,2011-11-03T03:03:00Z,28.8850,-90.0250,23.5,11111222 
LOOP,urn:ioos:station:wmo:lopl1:1,2011-11-03T03:18:00Z,28.8850,-90.0250,23.7,11111222 
LOOP,urn:ioos:station:wmo:lopl1:1,2011-11-03T03:33:00Z,28.8850,-90.0250,23.7,11111222 
LOOP,urn:ioos:station:wmo:lopl1:1,2011-11-03T03:48:00Z,28.8850,-90.0250,23.8,11111222 
LOOP,urn:ioos:station:wmo:lopl1:1,2011-11-03T04:03:00Z,28.8850,-90.0250,23.9,11111222 
LOOP,urn:ioos:station:wmo:lopl1:1,2011-11-03T04:18:00Z,28.8850,-90.0250,23.9,11111222 
LOOP,urn:ioos:station:wmo:lopl1:1,2011-11-03T04:33:00Z,28.8850,-90.0250,23.9,11111222 
LOOP,urn:ioos:station:wmo:lopl1:1,2011-11-03T04:48:00Z,28.8850,-90.0250,24.1,11111222 
LOOP,urn:ioos:station:wmo:lopl1:1,2011-11-03T05:03:00Z,28.8850,-90.0250,24.3,11111222 
LOOP,urn:ioos:station:wmo:lopl1:1,2011-11-03T05:18:00Z,28.8850,-90.0250,24.3,11111222 
LOOP,urn:ioos:station:wmo:lopl1:1,2011-11-03T05:33:00Z,28.8850,-90.0250,24.3,11111222 
LOOP,urn:ioos:station:wmo:lopl1:1,2011-11-03T05:48:00Z,28.8850,-90.0250,24.3,11111222 
LOOP,urn:ioos:station:wmo:lopl1:1,2011-11-03T06:03:00Z,28.8850,-90.0250,24.3,11111222 
LOOP,urn:ioos:station:wmo:lopl1:1,2011-11-03T06:18:00Z,28.8850,-90.0250,24.4,11111222 
LOOP,urn:ioos:station:wmo:lopl1:1,2011-11-03T06:33:00Z,28.8850,-90.0250,24.4,11111222 
LOOP,urn:ioos:station:wmo:lopl1:1,2011-11-03T06:48:00Z,28.8850,-90.0250,24.5,11111222 
LOOP,urn:ioos:station:wmo:lopl1:1,2011-11-03T07:03:00Z,28.8850,-90.0250,24.4,11111222 
LOOP,urn:ioos:station:wmo:lopl1:1,2011-11-03T07:18:00Z,28.8850,-90.0250,24.5,11111222 
LOOP,urn:ioos:station:wmo:lopl1:1,2011-11-03T07:33:00Z,28.8850,-90.0250,24.6,11111222 
LOOP,urn:ioos:station:wmo:lopl1:1,2011-11-03T07:53:00Z,28.8850,-90.0250,24.6,11111222 
LOOP,urn:ioos:station:wmo:lopl1:1,2011-11-03T08:08:00Z,28.8850,-90.0250,24.6,11111222 
LOOP,urn:ioos:station:wmo:lopl1:1,2011-11-03T08:23:00Z,28.8850,-90.0250,24.5,11111222 
LOOP,urn:ioos:station:wmo:lopl1:1,2011-11-03T08:38:00Z,28.8850,-90.0250,24.6,11111222 
LOOP,urn:ioos:station:wmo:lopl1:1,2011-11-03T08:53:00Z,28.8850,-90.0250,24.5,11111222 
LOOP,urn:ioos:station:wmo:lopl1:1,2011-11-03T09:08:00Z,28.8850,-90.0250,24.6,11111222 
LOOP,urn:ioos:station:wmo:lopl1:1,2011-11-03T09:23:00Z,28.8850,-90.0250,24.6,11111222 
LOOP,urn:ioos:station:wmo:lopl1:1,2011-11-03T09:38:00Z,28.8850,-90.0250,24.7,11111222 
LOOP,urn:ioos:station:wmo:lopl1:1,2011-11-03T09:53:00Z,28.8850,-90.0250,24.7,11111222 
LOOP,urn:ioos:station:wmo:lopl1:1,2011-11-03T10:08:00Z,28.8850,-90.0250,24.8,11111222 
LOOP,urn:ioos:station:wmo:lopl1:1,2011-11-03T10:23:00Z,28.8850,-90.0250,24.8,11111222 
LOOP,urn:ioos:station:wmo:lopl1:1,2011-11-03T10:38:00Z,28.8850,-90.0250,24.9,11111222 
LOOP,urn:ioos:station:wmo:lopl1:1,2011-11-03T10:53:00Z,28.8850,-90.0250,24.4,11111222 
LOOP,urn:ioos:station:wmo:lopl1:1,2011-11-03T11:08:00Z,28.8850,-90.0250,24.8,11111222 
LOOP,urn:ioos:station:wmo:lopl1:1,2011-11-03T11:23:00Z,28.8850,-90.0250,24.9,11111222 
LOOP,urn:ioos:station:wmo:lopl1:1,2011-11-03T11:38:00Z,28.8850,-90.0250,24.8,11111222 
LOOP,urn:ioos:station:wmo:lopl1:1,2011-11-03T11:53:00Z,28.8850,-90.0250,24.1,11111222 
LOOP,urn:ioos:station:wmo:lopl1:1,2011-11-03T12:08:00Z,28.8850,-90.0250,24.5,11111222 
LOOP,urn:ioos:station:wmo:lopl1:1,2011-11-03T12:23:00Z,28.8850,-90.0250,24.5,11111222 
LOOP,urn:ioos:station:wmo:lopl1:1,2011-11-03T12:38:00Z,28.8850,-90.0250,24.6,11111222 
LOOP,urn:ioos:station:wmo:lopl1:1,2011-11-03T12:53:00Z,28.8850,-90.0250,24.4,11111222 
LOOP,urn:ioos:station:wmo:lopl1:1,2011-11-03T13:08:00Z,28.8850,-90.0250,24.5,11111222 
LOOP,urn:ioos:station:wmo:lopl1:1,2011-11-03T13:23:00Z,28.8850,-90.0250,24.9,11111222 
LOOP,urn:ioos:station:wmo:lopl1:1,2011-11-03T13:38:00Z,28.8850,-90.0250,25.2,11111222 
LOOP,urn:ioos:station:wmo:lopl1:1,2011-11-03T13:53:00Z,28.8850,-90.0250,25.3,11111222 
LOOP,urn:ioos:station:wmo:lopl1:1,2011-11-03T14:08:00Z,28.8850,-90.0250,25.2,11111222 
LOOP,urn:ioos:station:wmo:lopl1:1,2011-11-03T14:23:00Z,28.8850,-90.0250,25.2,11111222 
LOOP,urn:ioos:station:wmo:lopl1:1,2011-11-03T14:38:00Z,28.8850,-90.0250,25.2,11111222 
LOOP,urn:ioos:station:wmo:lopl1:1,2011-11-03T14:53:00Z,28.8850,-90.0250,25.3,11111222 
LOOP,urn:ioos:station:wmo:lopl1:1,2011-11-03T15:08:00Z,28.8850,-90.0250,25.2,11111222 
LOOP,urn:ioos:station:wmo:lopl1:1,2011-11-03T15:23:00Z,28.8850,-90.0250,25.2,11111222 
LOOP,urn:ioos:station:wmo:lopl1:1,2011-11-03T15:38:00Z,28.8850,-90.0250,25.3,11111222 
LOOP,urn:ioos:station:wmo:lopl1:1,2011-11-03T15:53:00Z,28.8850,-90.0250,25.4,11111222 
LOOP,urn:ioos:station:wmo:lopl1:1,2011-11-03T16:08:00Z,28.8850,-90.0250,25.8,11111222 
LOOP,urn:ioos:station:wmo:lopl1:1,2011-11-03T16:23:00Z,28.8850,-90.0250,25.5,11111222 
LOOP,urn:ioos:station:wmo:lopl1:1,2011-11-03T16:38:00Z,28.8850,-90.0250,25.3,11111222 
LOOP,urn:ioos:station:wmo:lopl1:1,2011-11-03T16:53:00Z,28.8850,-90.0250,23.9,11111222 
LOOP,urn:ioos:station:wmo:lopl1:1,2011-11-03T17:08:00Z,28.8850,-90.0250,23.8,11111222 
LOOP,urn:ioos:station:wmo:lopl1:1,2011-11-03T17:23:00Z,28.8850,-90.0250,22.8,11111222 
LOOP,urn:ioos:station:wmo:lopl1:1,2011-11-03T17:53:00Z,28.8850,-90.0250,22.2,11111222 
LOOP,urn:ioos:station:wmo:lopl1:1,2011-11-03T18:08:00Z,28.8850,-90.0250,21.4,11111222 
LOOP,urn:ioos:station:wmo:lopl1:1,2011-11-03T18:23:00Z,28.8850,-90.0250,21.2,11111222 
LOOP,urn:ioos:station:wmo:lopl1:1,2011-11-03T18:43:00Z,28.8850,-90.0250,21.7,11111222 
LOOP,urn:ioos:station:wmo:lopl1:1,2011-11-03T18:58:00Z,28.8850,-90.0250,21.1,11111222 
LOOP,urn:ioos:station:wmo:lopl1:1,2011-11-03T19:13:00Z,28.8850,-90.0250,20.1,11111222 
LOOP,urn:ioos:station:wmo:lopl1:1,2011-11-03T19:28:00Z,28.8850,-90.0250,19.6,11111222 
LOOP,urn:ioos:station:wmo:lopl1:1,2011-11-03T19:43:00Z,28.8850,-90.0250,19.3,11111222 
LOOP,urn:ioos:station:wmo:lopl1:1,2011-11-03T19:58:00Z,28.8850,-90.0250,18.9,11111222 
LOOP,urn:ioos:station:wmo:lopl1:1,2011-11-03T20:13:00Z,28.8850,-90.0250,18.4,11111222 
LOOP,urn:ioos:station:wmo:lopl1:1,2011-11-03T20:28:00Z,28.8850,-90.0250,17.8,11111222 
LOOP,urn:ioos:station:wmo:lopl1:1,2011-11-03T20:43:00Z,28.8850,-90.0250,17.4,11111222 
LOOP,urn:ioos:station:wmo:lopl1:1,2011-11-03T20:58:00Z,28.8850,-90.0250,17.1,11111222 
LOOP,urn:ioos:station:wmo:lopl1:1,2011-11-03T21:13:00Z,28.8850,-90.0250,16.9,11111222 
LOOP,urn:ioos:station:wmo:lopl1:1,2011-11-03T21:28:00Z,28.8850,-90.0250,17.1,11111222 